Location: Csohesd
(46.2500°N, 22.6167°E)
Time: 13:35:16
(UTC+00:00)

Cosmos 1269 Rocket - Pass Details

Date: 21 October 2021
Orbit: 773 x 778 km, 74.1° (Epoch: 07 December)

Event Time Altitude Azimuth Distance (km) Brightness Sun altitude
Rises 16:11:48 0° 341° (NNW) 3,269 7.4 -7.5°
Reaches altitude 10° 16:14:15 10° 346° (NNW) 2,336 6.6 -7.9°
Maximum altitude 16:19:28 55° 64° (ENE) 935 4.1 -8.8°
Drops below altitude 10° 16:24:37 10° 142° (SE) 2,318 6.2 -9.7°
Sets 16:27:03 0° 147° (SSE) 3,240 7.0 -10.1°
